ATLAS 5 CENTAUR DEB, 46668

Orbit data source: Space-Track

ATLAS 5 CENTAUR DEB, 46668 is space debris in HEO originally from a launch on Wed, 17 Oct 2018 UTC launched from the Air Force Eastern Test Range (AFETR). Debris objects in space refer to the collection of defunct objects orbiting the Earth. Examples of debris include non-operational satellites, rocket bodies, and fragments generated from explosions, collisions, or faulty payload assembly.

Loading next visibility...
Identifier
46668, 2018-079CW
Orbit
HEO
Country
Flag of USUS
Related business
Flag of USUnited Launch Alliance/Lockheed Martin (US)
Manufacturer
ULA Decatur
Mission
Spacecraft
Bus & Motor
Unknown
Mass
Unknown
Launch date (UTC)
2018-10-17 (8 years ago)
Launch vehicle
Unknown
Launch site
Air Force Eastern Test Range (AFETR)
Object type
Payload
Rocket body
Debris
Shape & HBR
Unknown shape, 1.1 m
Radar Cross Section
RCS unknown

Expand to show TLE details & history
Last TLE update: 3 days ago

TLE from 3 days ago
0 ATLAS 5 CENTAUR DEB
1 46668U 18079CW  26170.89945691 -.00000112  00000-0  00000+0 0  9996
2 46668  13.2635  33.0977 4657363 322.1452  12.7914  1.83706963 38226
Epoch: 2026-06-19T21:35Z
TLE epoch observation values (Epoch: 2026-06-19T21:35:13.077Z)
Latitude
0.0001°
Longitude
161.15601°
Altitude
9,774.957 km
Speed
5.933 km/s
True Right ascension
02h 12m 19s
True Declination
0° 00' 00"
Sunlit
Object was in daylight at epoch
Visualization orbit readout
Latitude
Unknown
Longitude
Unknown
Altitude
Unknown
Speed
Unknown
Apparent Right ascension
Unknown
Apparent Declination
Unknown
Sunlit
N/A
Visualization observer readout
Local Sidereal Time
21:39:52
Azimuth
Unknown
Elevation
Unknown
Doppler factor
Unknown
Orbital elements
Apogee altitude
34,901.854 km
Perigee altitude
8,668.499 km
Semi-major axis
28,163.314 km
Eccentricity
0.46574
Inclination
13.2635°
RAAN
33.0977°
Arg. of periapsis
322.1452°
True anomaly
37.83596°
Mean anomaly
12.7914°
Eccentric anomaly
23.38111°
Mean motion
0.45922 °/min
Orbital period
783.94 mins
BSTAR
0
Loading maneuver chart data...
Computing Atmospheric mass density...

Documentation

Showing up to 5 results
|